Regional Weather Roundup
Issued by NWS

Home | Current Version | Previous Version | Text Only | Print | Product List | Glossary On
Versions: 1 2 3 4 5 6 7 8 9 10 11 12 13 14 15 16 17 18 19 20 21 22 23 24 25 26 27 28 29 30 31 32 33 34 35 36 37 38 39 40 41 42 43 44 45 46 47 48 49 50
000
ASUS43 KTOP 250308
RWRKS

WEATHER ROUNDUP FOR KANSAS
NATIONAL WEATHER SERVICE GOODLAND KS
1000 PM CDT SUN SEP 24 2017

NOTE:  "FAIR" INDICATES FEW OR NO CLOUDS BELOW 12,000 FEET WITH NO
SIGNIFICANT WEATHER AND/OR OBSTRUCTIONS TO VISIBILITY.

KSZ001>006-013>018-027>032-041>047-250400-
NORTHWEST KANSAS

CITY           SKY/WX    TMP DP  RH WIND       PRES   REMARKS
GOODLAND       CLOUDY    53  53 100 NE13      29.94F FOG
HAYS           CLOUDY    68  65  90 E9        29.88S
HILL CITY      RAIN      59  58  96 NE16      29.93S FOG
RUSSELL        CLOUDY    69  66  90 E9        29.88R
$$

KSZ061>065-074>080-084>089-250400-
SOUTHWEST KANSAS

CITY           SKY/WX    TMP DP  RH WIND       PRES   REMARKS
DODGE CITY     MOCLDY    71  65  81 S15       29.90R
ELKHART          N/A     66  67 100 SE15        N/A
GARDEN CITY    CLEAR     68  65  90 S10       29.87S
GREAT BEND     MOCLDY    72  60  66 S10       29.89R
LIBERAL        CLEAR     67  65  93 SE13      29.90R
PRATT          PTCLDY    75  57  53 S10       29.91R
$$

KSZ066>073-081>083-090>101-250400-
SOUTHEAST KANSAS

CITY           SKY/WX    TMP DP  RH WIND       PRES   REMARKS
CHANUTE        CLEAR     75  69  81 SE6       29.94R
COFFEYVILLE    CLEAR     74  67  78 E6        29.92R
HUTCHINSON     CLOUDY    76  63  64 SE8       29.89R
MEDICINE LODGE   N/A     77  59  53 S5        29.89R
NEWTON         CLOUDY    73  64  73 SE7       29.92R
PARSONS        CLEAR     75  67  76 SE3       29.94R
WICHITA INTL   CLOUDY    77  66  68 SE12      29.90R
WICHITA JABRA  CLOUDY    77  65  66 SE8       29.91R
WICHITA MCCONL CLOUDY    77  63  61 S9        29.91R
WINFIELD       PTCLDY    77  65  66 SE7       29.92R
$$

KSZ007>012-019>026-033>040-048>060-102>105-250400-
NORTHEAST KANSAS

CITY           SKY/WX    TMP DP  RH WIND       PRES   REMARKS
CONCORDIA      LGT RAIN  67  67 100 E8        29.92R
EMPORIA        MOCLDY    75  65  70 SE10      29.93R
LAWRENCE       CLEAR     73  68  84 E7        29.92S
MANHATTAN      CLOUDY    78  64  61 S7        29.90R
MARYSVILLE     LGT RAIN  70  68  94 N3        29.92R
OLATHE IND     CLEAR     76  67  73 SE8       29.95R
OLATHE EXE     CLEAR     74  68  81 SE6       29.95R
SALINA         CLOUDY    75  69  81 E6        29.89R
TOPEKA BILLARD PTCLDY    75  68  78 SE6       29.91R
TOPEKA FORBES  PTCLDY    76  68  76 SE5       29.93R
$$



USA.gov is the U.S. government's official web portal to all federal, state and local government web resources and services.